BEIDOU-2 IGSO-4

Last updated on Thu Mar 05 2026 00:02:56 GMT+0000 (Coordinated Universal Time)

1 37763U 11038A 26063.65270079 -.00000106 00000+0 00000+0 0 9998 2 37763 54.5895 166.6175 0154495 230.9812 94.2035 1.00265629 53595
UTC large
Height (km)
Speed (km/s)
/
Latitude / Longitude
Inclination (degrees)
Orbital Period (minutes)
Azimuth
Elevation
Range (km)
Doppler Factor

Next 0 passes for location: London (51.5072 / 0.1276)

Sorry there are no passes over London.